Change the Weather History Date:

Thursday, December 5, 2013

  Actual Average Record
Temperature  
Mean Temperature 44 °F 32 °F  
Max Temperature 59 °F 40 °F 62 °F (2001)
Min Temperature 28 °F 24 °F 3 °F (2003)
Degree Days  
Heating Degree Days 21 33  
Month to date heating degree days 147 162  
Since 1 July heating degree days 1678 1775  
Cooling Degree Days 0 0  
Month to date cooling degree days 0 0  
Year to date cooling degree days 503 313  
Moisture  
Dew Point 43 °F    
Average Humidity 82    
Maximum Humidity 92    
Minimum Humidity 72    
Precipitation  
Precipitation T in 0.09 in 0.31 in (2012)
Month to date precipitation T 0.48  
Year to date precipitation 41.90 38.39  
Sea Level Pressure  
Sea Level Pressure 30.00 in    
Wind  
Wind Speed 4 mph (South)    
Max Wind Speed 20 mph    
Max Gust Speed 31 mph    
Visibility 9 miles    
Events      
T = Trace of Precipitation, MM = Missing Value Source: NWS Daily Summary

Daily Weather History Graph

Daily Weather History Graph

Search for Another Location

Airport or City:

Trip Planner

Search our weather history database for the weather conditions in past years. The results will help you decide how hot, cold, wet, or windy it might be!

Date:

Astronomy

Dec. 05, 2013 Rise Set
Actual Time 7:08 AM EST 4:18 PM EST
Civil Twilight 6:36 AM EST 4:50 PM EST
Nautical Twilight 6:01 AM EST 5:26 PM EST
Astronomical Twilight 5:26 AM EST 6:00 PM EST
Moon 9:24 AM EST (12/5) 7:38 PM EST (12/5)
Length of Visible Light 10h 14m
Length of Day
9h 10m
Waxing Crescent, 10% of the Moon is Illuminated
Dec 5
Waxing Crescent
Dec 9
First Quarter
Dec 17
Full
Dec 25
Last Quarter
Jan 1
New

Hourly Weather History & Observations

Time (EST) Temp. Windchill Dew Point Humidity Pressure Visibility Wind Dir Wind Speed Gust Speed Precip Events Conditions
12:54 AM 28.9 °F - 26.1 °F 89% 30.13 in 8.0 mi Calm Calm - N/A   Clear
1:18 AM 30.2 °F - 26.6 °F 86% 30.11 in 7.0 mi Calm Calm - N/A   Mostly Cloudy
1:54 AM 33.1 °F - 28.9 °F 85% 30.13 in 8.0 mi Calm Calm - N/A   Overcast
2:02 AM 33.8 °F - 28.4 °F 81% 30.10 in 8.0 mi Calm Calm - N/A   Overcast
2:51 AM 33.8 °F - 30.2 °F 87% 30.09 in 9.0 mi Calm Calm - N/A   Overcast
2:54 AM 35.1 °F - 30.0 °F 82% 30.11 in 9.0 mi Calm Calm - N/A   Overcast
3:54 AM 35.1 °F - 30.0 °F 82% 30.09 in 9.0 mi Calm Calm - N/A   Overcast
4:54 AM 39.9 °F 36.7 °F 34.0 °F 79% 30.09 in 8.0 mi NNE 4.6 mph - N/A   Overcast
5:54 AM 46.9 °F - 39.0 °F 74% 30.06 in 8.0 mi ENE 3.5 mph - N/A   Mostly Cloudy
6:01 AM 46.4 °F 45.2 °F 39.2 °F 76% 30.04 in 8.0 mi Variable 3.5 mph - N/A   Mostly Cloudy
6:19 AM 46.4 °F - 39.2 °F 76% 30.04 in 8.0 mi Calm Calm - N/A   Overcast
6:45 AM 46.4 °F - 39.2 °F 76% 30.05 in 7.0 mi Calm Calm - N/A   Mostly Cloudy
6:54 AM 46.0 °F 43.9 °F 39.9 °F 79% 30.06 in 8.0 mi NNE 4.6 mph - N/A   Mostly Cloudy
7:54 AM 48.0 °F - 41.0 °F 77% 30.06 in 8.0 mi Variable 4.6 mph - N/A   Overcast
8:54 AM 50.0 °F - 43.0 °F 77% 30.04 in 10.0 mi NE 4.6 mph - N/A   Overcast
9:21 AM 51.8 °F - 44.6 °F 76% 30.01 in 10.0 mi Variable 3.5 mph - N/A   Scattered Clouds
9:54 AM 54.0 °F - 46.0 °F 75% 30.03 in 10.0 mi Variable 5.8 mph 17.3 mph N/A   Mostly Cloudy
10:25 AM 53.6 °F - 46.4 °F 77% 30.03 in 10.0 mi South 9.2 mph - N/A   Overcast
10:54 AM 55.0 °F - 46.9 °F 74% 30.03 in 10.0 mi South 9.2 mph 19.6 mph N/A   Overcast
11:54 AM 55.0 °F - 46.9 °F 74% 29.98 in 10.0 mi South 15.0 mph 23.0 mph N/A   Overcast
12:54 PM 54.0 °F - 46.9 °F 77% 29.96 in 10.0 mi South 12.7 mph 23.0 mph N/A   Overcast
1:54 PM 55.0 °F - 48.0 °F 77% 29.96 in 10.0 mi SSE 8.1 mph 19.6 mph N/A   Overcast
2:54 PM 55.9 °F - 48.9 °F 77% 29.93 in 10.0 mi Calm Calm - N/A   Overcast
3:54 PM 57.0 °F - 48.9 °F 74% 29.92 in 10.0 mi Variable 4.6 mph - N/A   Overcast
4:54 PM 57.0 °F - 50.0 °F 77% 29.92 in 10.0 mi Variable 4.6 mph - N/A   Overcast
5:54 PM 57.0 °F - 51.1 °F 81% 29.91 in 10.0 mi SSW 4.6 mph 16.1 mph 0.00 in   Overcast
6:54 PM 57.0 °F - 51.1 °F 81% 29.90 in 10.0 mi Calm Calm - N/A   Mostly Cloudy
7:54 PM 57.9 °F - 51.1 °F 78% 29.88 in 10.0 mi WSW 6.9 mph - N/A   Mostly Cloudy
8:54 PM 55.9 °F - 50.0 °F 80% 29.88 in 10.0 mi Calm Calm - N/A   Mostly Cloudy
9:54 PM 57.0 °F - 51.1 °F 81% 29.90 in 10.0 mi Calm Calm - N/A   Mostly Cloudy
10:02 PM 57.2 °F - 51.8 °F 82% 29.89 in 10.0 mi SSW 4.6 mph - N/A   Overcast
10:28 PM 57.2 °F - 51.8 °F 82% 29.89 in 10.0 mi SSW 4.6 mph - N/A   Overcast
10:54 PM 57.0 °F - 51.1 °F 81% 29.89 in 10.0 mi Variable 4.6 mph - N/A   Overcast
11:54 PM 57.0 °F - 51.1 °F 81% 29.89 in 10.0 mi SSW 3.5 mph - N/A   Overcast